Regional Weather Roundup
Issued by NWS Sterling, VA

Home | Current Version | Previous Version | Graphics & Text | Print | Product List | Glossary On
Versions: 1 2 3 4 5 6 7 8 9 10 11 12 13 14 15 16 17 18 19 20 21 22 23 24 25 26 27 28 29 30 31 32 33 34 35 36 37 38 39 40 41 42 43 44 45 46 47 48 49 50
000
ASUS41 KLWX 241610
RWRLWX

REGIONAL WEATHER ROUNDUP
NATIONAL WEATHER SERVICE BALTIMORE MD/WASHINGTON DC
1100 AM EST SAT JAN 24 2015

Note: "FAIR" indicates few or no clouds below 12,000 feet
with no significant weather and/or obstructions to visibility.
 TC=TEMPERATURE CELSIUS

 * =Non NWS site. Station does not report precipitation (e.g. rain,
    snow, etc.), thunder, or fog.

DCZ001-MDZ009-015-VAZ040>042-051-053>054-241700-
WASHINGTON METRO

CITY           SKY/WX    TMP DP  RH WIND       PRES   REMARKS
WASHINGTON NAT CLOUDY    40  34  79 NW8       29.56S
DULLES         CLOUDY    35  33  92 NW7       29.56S
ANDREWS AFB    DRIZZLE   36  36 100 NW14      29.52F FOG     WCI  27
FT BELVOIR     CLOUDY    37  34  89 NW9       29.55F
QUANTICO       CLOUDY    39  34  82 N9        29.55F
COLLEGE PARK*  CLOUDY    37  36  93 CALM      29.55R
LEESBURG*      CLOUDY    34  34 100 NW7       29.57S
GAITHERSBURG*  CLOUDY    34  30  86 NW9       29.58R WCI  26

$$

MDZ006>007-011-014-241700-
BALTIMORE METRO

CITY           SKY/WX    TMP DP  RH WIND       PRES   REMARKS
BWI AIRPORT    DRIZZLE   37  35  92 W6        29.54R
MD SCIENCE CTR   N/A     36  34  92 MISG      29.55R
MARTIN STATE   CLOUDY    37  37 100 W5        29.55R FOG
ANNAPOLIS      CLOUDY    37  35  92 NW5       29.54S FOG
FORT MEADE*    CLOUDY    36  34  93 W6        29.57R

$$

MDZ012-015-019>023-241700-
MARYLAND EASTERN SHORE

CITY           SKY/WX    TMP DP  RH WIND       PRES   REMARKS
OCEAN CITY     LGT RAIN  37  36  96 NW14G20   29.46R WCI  28
SALISBURY      LGT RAIN  39  36  89 N12       29.45F FOG
BAY BRIDGE AP*   N/A     36  36 100 NW6       29.54R FOG
CAMBRIDGE*     CLOUDY    37  36  93 NW10      29.49F
EASTON*        DRZL/FOG  37  37 100 CALM      29.56R VSB 1

$$

MDZ017>025-241700-
SOUTHERN MARYLAND

CITY           SKY/WX    TMP DP  RH WIND       PRES   REMARKS
PATUXENT RIVER CLOUDY    37  35  92 NW13      29.50F FOG     WCI  29
ST INIGOES     CLOUDY    37  32  82 NW8       29.49F FOG
LEONARDTOWN*   CLOUDY    36  34  93 NW5       29.52F

$$

MDZ003>005-241700-
NORTH CENTRAL MARYLAND

CITY           SKY/WX    TMP DP  RH WIND       PRES   REMARKS
FREDERICK*     NOT AVBL
HAGERSTOWN APT CLOUDY    34  31  88 NW5       29.55S FOG
WESTMINSTER*   CLOUDY    34  30  86 NW3       29.53R FOG

$$

MDZ501>502-241700-
WESTERN MARYLAND

CITY           SKY/WX    TMP DP  RH WIND       PRES   REMARKS
OAKLAND*       CLOUDY    28 N/A N/A W5        29.53S HAZE
CUMBERLAND*    PTSUNNY   36  36 100 CALM      29.62R

$$

VAZ025>031-241700-
SHENANDOAH VALLEY

CITY           SKY/WX    TMP DP  RH WIND       PRES   REMARKS
WINCHESTER*    CLOUDY    36  32  87 NW8       29.56F
FRONT ROYAL*   CLOUDY    32  32 100 CALM      29.56S
LURAY*         LGT RAIN  36  36 100 CALM      29.56F
NEW MARKET*    CLOUDY    34  33  96 CALM      29.57S
STAUNTON*      CLOUDY    35  33  93 CALM      29.57S FOG
WAYNESBORO*    CLOUDY    34  33  97 NW3       29.54F

$$

WVZ021-048>050-054>055-241700-
EASTERN WEST VIRGINIA PANHANDLE

CITY           SKY/WX    TMP DP  RH WIND       PRES   REMARKS
MARTINSBURG    CLOUDY    37  32  82 CALM      29.57R
PETERSBURG*    CLOUDY    35  34  97 CALM      29.60S FOG

$$

VAZ036>039-050-241700-
CENTRAL FOOTHILLS

CITY           SKY/WX    TMP DP  RH WIND       PRES   REMARKS
CHARLOTTESVILL LGT RAIN  37  35  92 SW3       29.55F FOG
CULPEPER*      DRIZZLE   37  36  93 N7        29.56F
ORANGE*        CLOUDY    37  36  93 NW5       29.57F
GORDONSVILLE*  CLOUDY    36  34  91 CALM      29.55F
WARRENTON*     DRIZZLE   37  37 100 NW6       29.56F

$$

VAZ055>057-241700-
NORTH AND CENTRAL PIEDMONT

CITY           SKY/WX    TMP DP  RH WIND       PRES   REMARKS
FREDERICKSBRG* CLOUDY    39  39  99 NW9       29.53F
STAFFORD*      CLOUDY    37  32  82 NW10      29.58F

$$

NCZ024-NYZ072-PAZ021-071-VAZ022-071-241700-
OTHER REGIONAL OBSERVATIONS

CITY           SKY/WX    TMP DP  RH WIND       PRES   REMARKS
NEW YORK CITY  CLOUDY    35  32  88 VRB6      29.48F FOG
PHILADELPHIA   DRIZZLE   35  33  92 N8        29.49F FOG     WCI  29
PITTSBURGH     CLOUDY    26  22  84 NW9       29.63F FOG     WCI  17
ROANOKE        CLOUDY    41  31  67 NW9G23    29.60S
RICHMOND       DRIZZLE   38  37  97 NW13      29.50F FOG
RALEIGH        PTSUNNY   40  35  83 VRB6      29.59R

$$

ANZ530>537-241700-
MARINE OBSERVATIONS

STATION/POSITION TIME  TEMP    WIND        PRES
                       AIR SEA DIR/SP/G
                 (UTC) (F)     (DEG/KT/KT) (MB)
THOMAS PT LIGHT  1600   36 37  340/  8/  9 1000.7S
BALT KEY BRIDGE  1600   36     290/  6/  7 1000.4R
COVE POINT       1600   35     350/ 16/ 17  999.0F
LEWISETTA        1600   36 38  340/ 12/ 17  997.6F
SOLOMONS ISLAND  1600      38                N/A
PINEY POINT      1600          350/ 13/ 14   N/A

$$




USA.gov is the U.S. government's official web portal to all federal, state and local government web resources and services.